Location: Votelez
(50.0000°N, 15.0000°E)
Time: 05:29:23
(UTC+01:00)

ARIANE 6 FM1 Upper Stage - Pass Details

Date: 14 February 2026
Orbit: 523 x 607 km, 62.0° (Epoch: 11 March)

Event Time Altitude Azimuth Distance (km) Brightness Sun altitude
Rises 20:17:07 0° 309° (NW) 2,660 7.1 -29.4°
Reaches altitude 10° 20:19:26 10° 300° (WNW) 1,768 6.1 -29.7°
Enters shadow 20:21:40 26° 273° (W) 1,061 4.6 -30.1°
